Location: Seattle
(47.6064°N, 122.3308°W)
Time: 11:53:37
(UTC-07:00)

Courier 1B Rocket - Visible Passes

Search period start: 12 June 2021 00:00
Search period end: 22 June 2021 00:00
Orbit: 920 x 1202 km, 28.2° (Epoch: 12 June)

Date Brightness Start Highest point End Pass type
(mag) Time Alt. Az. Time Alt. Az. Time Alt. Az.
15 Jun 6.6 22:44:08 10° SSW 22:46:14 12° S 22:46:15 12° S visible
16 Jun 6.9 23:35:31 10° SSW 23:35:33 10° SSW 23:35:33 10° SSW visible
17 Jun 6.6 22:34:36 10° SSW 22:37:05 12° S 22:38:21 12° SSE visible
18 Jun 6.8 23:27:04 10° SSW 23:27:25 10° SSW 23:27:25 10° SSW visible
19 Jun 6.7 22:25:29 10° SSW 22:27:55 12° S 22:30:04 10° SSE visible
21 Jun 6.8 22:16:50 10° SSW 22:18:42 11° SSW 22:20:34 10° S visible
